Regional Weather Roundup
Issued by NWS

Home | Current Version | Previous Version | Text Only | Print | Product List | Glossary On
Versions: 1 2 3 4 5 6 7 8 9 10 11 12 13 14 15 16 17 18 19 20 21 22 23 24 25 26 27 28 29 30 31 32 33 34 35 36 37 38 39 40 41 42 43 44 45 46 47 48 49 50
000
ASUS44 KOUN 172010
RWROK

WEATHER ROUNDUP FOR OKLAHOMA
NATIONAL WEATHER SERVICE NORMAN OK
300 PM CDT WED SEP 17 2014

NOTE: "FAIR" INDICATES FEW OR NO CLOUDS BELOW 12,000 FEET WITH NO
      SIGNIFICANT WEATHER AND/OR OBSTRUCTIONS TO VISIBILITY.

OKZ001>007-009>012-014-015-017-172100-
NORTHWEST OKLAHOMA AND THE PANHANDLE

CITY           SKY/WX    TMP DP  RH WIND       PRES   REMARKS
GAGE           CLOUDY    89  62  40 SW15      29.91F
ENID/WOODRING  PTSUNNY   97  61  30 S12G18    29.85F HX  97
$$

OKZ016-021>023-033>039-044-045-172100-
SOUTHWEST OKLAHOMA

CITY           SKY/WX    TMP DP  RH WIND       PRES   REMARKS
LAWTON/REGL    PTSUNNY   92  65  40 W9        29.89F HX  94
LAWTON/FT SILL CLOUDY    91  67  46 W3        29.89F HX  94
FREDERICK      PTSUNNY   91  67  44 W12       29.88F HX  94
CLINTON        CLOUDY    91  62  37 SW12G18   29.94F HX  91
HOBART         CLOUDY    92  64  39 W15G21    29.91F HX  93
ALTUS AFB      SUNNY     90  68  47 SW10      29.91F HX  94
$$

OKZ018>020-024>031-172100-
CENTRAL OKLAHOMA

CITY           SKY/WX    TMP DP  RH WIND       PRES   REMARKS
OKLAHOMA CITY  PTSUNNY   92  66  42 SW12      29.90F HX  94
OKC/WILEY POST PTSUNNY   91  67  44 SW12      29.90F HX  94
OKC/TINKER AFB PTSUNNY   90  66  44 SW12      29.90F HX  93
STILLWATER     PTSUNNY   91  67  44 S9        29.87F HX  94
GUTHRIE        PTSUNNY   92  65  40 W14       29.87F HX  94
$$

OKZ008-013-054>072-172100-
NORTHEAST OKLAHOMA

CITY           SKY/WX    TMP DP  RH WIND       PRES   REMARKS
TULSA          PTSUNNY   92  68  45 SW13G22   29.83F HX  96
TULSA/JONES    MOSUNNY   91  70  49 SW13      29.85F HX  96
PONCA CITY     MOSUNNY   93  64  38 SW8G22    29.84F HX  94
BARTLESVILLE   MOSUNNY   93  71  48 SW9       29.85F HX 100
MUSKOGEE       MOSUNNY   87  73  62 S10       29.90F HX  94
$$

OKZ032-040>043-046>053-073>077-172100-
SOUTH CENTRAL/SOUTHEAST OKLAHOMA

CITY           SKY/WX    TMP DP  RH WIND       PRES   REMARKS
ARDMORE/DWNTWN PTSUNNY   90  66  45 CALM      29.90F HX  92
MCALESTER      PTSUNNY   88  72  58 S9        29.91F HX  94
$$




USA.gov is the U.S. government's official web portal to all federal, state and local government web resources and services.